WNISAT-1

Last updated on Tue Jul 01 2025 00:03:44 GMT+0000 (Coordinated Universal Time)

1 39423U 13066H 25181.46900456 .00000468 00000+0 95850-4 0 9996 2 39423 97.6792 351.7458 0163946 259.5325 98.7365 14.57126501615491
UTC large
Height (km)
Speed (km/s)
/
Latitude / Longitude
Inclination (degrees)
Orbital Period (minutes)
Azimuth
Elevation
Range (km)
Doppler Factor

Next 0 passes for location: London (51.5072 / 0.1276)

Sorry there are no passes over London.